Overview Statistics Trail Chart Weather Telemetry Raw packets
 

This is the latest recevied weather packets stored in our database for station/object W0WFX-2. If no packets are shown the sender has not sent any weather packets the latest 10 day(s).

<< 10 11 12 13 14 15 16 >>
Time Temp. Humidity Pressure Rain* Wind** Luminosity Snow
1788569332 32.22° C 53% 1012.1 hPa 0 mm - 2 W/m² -
1788569032 32.22° C 52% 1012.2 hPa 0 mm - 3 W/m² -
1788568727 32.22° C 52% 1011.9 hPa 0 mm - 5 W/m² -
1788568423 32.78° C 51% 1011.9 hPa 0 mm - 7 W/m² -
1788568118 32.78° C 50% 1011.7 hPa 0 mm - 10 W/m² -
1788567818 33.33° C 49% 1011.9 hPa 0 mm - 13 W/m² -
1788567513 33.33° C 48% 1011.9 hPa 0 mm - 16 W/m² -
1788567213 33.89° C 47% 1012.1 hPa 0 mm - 18 W/m² -
1788566908 33.89° C 47% 1012.1 hPa 0 mm - 21 W/m² -
1788566603 33.89° C 47% 1011.9 hPa 0 mm - 23 W/m² -
1788566299 33.89° C 46% 1011.6 hPa 0 mm - 25 W/m² -
1788565994 34.44° C 46% 1012 hPa 0 mm - 27 W/m² -
1788565689 34.44° C 44% 1012.1 hPa 0 mm - 28 W/m² -
1788565383 34.44° C 44% 1012.1 hPa 0 mm - 30 W/m² -
1788565079 34.44° C 44% 1012.1 hPa 0 mm - 31 W/m² -
1788564776 35° C 44% 1012.1 hPa 0 mm - 33 W/m² -
1788564472 35° C 44% 1012.1 hPa 0 mm - 40 W/m² -
1788564168 35° C 43% 1012.3 hPa 0 mm - 35 W/m² -
1788563883 35° C 43% 1012.4 hPa 0 mm - 36 W/m² -
1788563559 35.56° C 43% 1012.3 hPa 0 mm - 38 W/m² -
1788563259 35.56° C 43% 1012.1 hPa 0 mm - 38 W/m² -
1788562953 35.56° C 44% 1012.3 hPa 0 mm - 46 W/m² -
1788562652 35.56° C 43% 1012.3 hPa 0 mm - 41 W/m² -
1788562346 35.56° C 42% 1012.3 hPa 0 mm - 41 W/m² -
1788562045 35.56° C 42% 1012.2 hPa 0 mm - 44 W/m² -

* Rain latest hour (hover to see other rain measurements)
** Current wind speed in m/s (hover to see current wind gust speed)